Change the Weather History Date:

Monday, November 5, 2012

  Actual Average Record
Temperature  
Mean Temperature 50 °F -  
Max Temperature 57 °F 67 °F 82 °F (2003)
Min Temperature 44 °F 44 °F 30 °F (2006)
Degree Days  
Heating Degree Days 14    
Moisture  
Dew Point 38 °F    
Average Humidity 66    
Maximum Humidity 83    
Minimum Humidity 42    
Precipitation  
Precipitation 0.00 in - - ()
Sea Level Pressure  
Sea Level Pressure 30.06 in    
Wind  
Wind Speed 8 mph (NNE)    
Max Wind Speed 13 mph    
Max Gust Speed 21 mph    
Visibility 10 miles    
Events      
Averages and records for this station are not official NWS values.
T = Trace of Precipitation, MM = Missing Value Source: NWS Daily Summary

Daily Weather History Graph

Daily Weather History Graph

Search for Another Location

Airport or City:

Trip Planner

Search our weather history database for the weather conditions in past years. The results will help you decide how hot, cold, wet, or windy it might be!

Date:

Astronomy

Nov. 05, 2012 Rise Set
Actual Time 6:34 AM EST 5:11 PM EST
Civil Twilight 6:08 AM EST 5:38 PM EST
Nautical Twilight 5:38 AM EST 6:08 PM EST
Astronomical Twilight 5:08 AM EST 6:37 PM EST
Moon 10:47 PM EST (11/5) 11:52 AM EST (11/5)
Length of Visible Light 11h 29m
Length of Day
10h 37m
Waning Gibbous, 63% of the Moon is Illuminated
Nov 5
Waning Gibbous
Nov 6
Last Quarter
Nov 13
New
Nov 20
First Quarter
Nov 28
Full

Hourly Weather History & Observations

Time (EST) Temp. Windchill Dew Point Humidity Pressure Visibility Wind Dir Wind Speed Gust Speed Precip Events Conditions
12:56 AM 46.9 °F - 42.1 °F 83% 30.00 in 10.0 mi North 4.6 mph - N/A   Scattered Clouds
1:56 AM 46.9 °F - 42.1 °F 83% 30.00 in 10.0 mi North 5.8 mph - N/A   Mostly Cloudy
2:56 AM 46.9 °F - 42.1 °F 83% 30.00 in 10.0 mi North 4.6 mph - N/A   Overcast
3:56 AM 46.0 °F 41.9 °F 41.0 °F 83% 29.99 in 10.0 mi North 8.1 mph - N/A   Partly Cloudy
4:56 AM 46.0 °F 41.9 °F 39.9 °F 79% 30.01 in 10.0 mi North 8.1 mph - N/A   Clear
5:56 AM 45.0 °F 41.2 °F 39.9 °F 82% 30.04 in 10.0 mi North 6.9 mph - N/A   Mostly Cloudy
6:56 AM 46.0 °F 41.9 °F 39.9 °F 79% 30.04 in 10.0 mi North 8.1 mph - N/A   Mostly Cloudy
7:56 AM 46.9 °F - 39.0 °F 74% 30.07 in 10.0 mi North 10.4 mph - N/A   Mostly Cloudy
8:56 AM 48.9 °F - 39.9 °F 71% 30.07 in 10.0 mi North 10.4 mph - N/A   Scattered Clouds
9:56 AM 53.1 °F - 39.0 °F 59% 30.07 in 10.0 mi NNE 9.2 mph 17.3 mph N/A   Clear
10:56 AM 55.0 °F - 39.0 °F 55% 30.06 in 10.0 mi NNE 10.4 mph - N/A   Clear
11:56 AM 57.0 °F - 37.9 °F 49% 30.05 in 10.0 mi NNE 11.5 mph - N/A   Clear
12:56 PM 57.0 °F - 37.0 °F 47% 30.04 in 10.0 mi North 12.7 mph 20.7 mph N/A   Clear
1:56 PM 57.9 °F - 36.0 °F 44% 30.03 in 10.0 mi North 10.4 mph - N/A   Clear
2:56 PM 57.9 °F - 35.1 °F 42% 30.03 in 10.0 mi NNE 10.4 mph - N/A   Clear
3:56 PM 55.9 °F - 34.0 °F 44% 30.04 in 10.0 mi North 10.4 mph - N/A   Clear
4:56 PM 53.1 °F - 34.0 °F 48% 30.05 in 10.0 mi North 8.1 mph - N/A   Clear
5:56 PM 48.9 °F - 35.1 °F 59% 30.07 in 10.0 mi North 5.8 mph - N/A   Clear
6:56 PM 46.9 °F - 36.0 °F 66% 30.08 in 10.0 mi North 5.8 mph - N/A   Clear
7:56 PM 46.0 °F 43.9 °F 37.0 °F 71% 30.09 in 10.0 mi NNE 4.6 mph - N/A   Clear
8:56 PM 45.0 °F 41.2 °F 36.0 °F 71% 30.12 in 10.0 mi NNE 6.9 mph - N/A   Clear
9:56 PM 44.1 °F 40.1 °F 36.0 °F 73% 30.14 in 10.0 mi NE 6.9 mph - N/A   Clear
10:56 PM 45.0 °F 39.3 °F 37.0 °F 74% 30.12 in 10.0 mi ENE 11.5 mph - N/A   Clear
11:56 PM 45.0 °F 39.3 °F 37.0 °F 74% 30.11 in 10.0 mi ENE 11.5 mph - N/A   Clear